Track STARLINK-1771 now! 10-day predictions STARLINK-1771 is classified as:
1 46384U 20062BM 21106.30287929 -.00001405 00000-0 -75509-4 0 9997 2 46384 53.0566 125.0050 0000318 157.8474 202.2529 15.06390964 34937